Location: Windsor
(43.2292°N, 89.3015°W)
Time: 10:43:17
(UTC+00:00)

Tiros 1 - Pass Details

Date: 06 June 2022
Orbit: 629 x 663 km, 48.4° (Epoch: 04 July)

Event Time Altitude Azimuth Distance (km) Brightness Sun altitude
Rises 06:58:19 0° 293° (WNW) 2,917 10.6 -22.6°
Reaches altitude 10° 07:00:39 10° 297° (WNW) 2,010 9.8 -22.4°
Maximum altitude 07:05:16 67° 20° (NNE) 685 7.4 -22.2°
Drops below altitude 10° 07:09:53 10° 104° (ESE) 2,019 9.7 -21.9°
Sets 07:12:14 0° 107° (ESE) 2,931 10.6 -21.8°
